User: anonymous   Login
Location: Unspecified
(0.0000°N, 0.0000°E)
Time: 11:23:57
(UTC+02:00)
Language:

Cosmos 2237 Rocket - Orbit

View from above orbital plane
View from above orbital plane
View from above satellite
View from above satellite

Ground track
Ground track

The orbit data is extracted from the following two-line orbital elements,

1 22566U 93016B   17230.63047689 -.00000018 +00000-0 +15316-4 0  9996
2 22566 071.0084 295.8539 0009191 026.3127 333.8461 14.14952933260091
Epoch (UTC): 18 August 2017 15:07:53
Eccentricity: 0.0009191
inclination: 71.0084°
perigee height: 836 km
apogee height: 849 km
right ascension of ascending node: 295.8539°
argument of perigee: 26.3127°
revolutions per day: 14.14952933
mean anomaly at epoch: 333.8461°
orbit number at epoch: 26009

The dashed part of the orbit path shows where the satellite is in the earth's shadow,  

DLR